Regional Weather Roundup
Issued by NWS

Home | Current Version | Previous Version | Graphics & Text | Print | Product List | Glossary On
Versions: 1 2 3 4 5 6 7 8 9 10 11 12 13 14 15 16 17 18 19 20 21 22 23 24 25 26 27 28 29 30 31 32 33 34 35 36 37 38 39 40 41 42 43 44 45 46 47 48 49 50
000
ASUS43 KIND 251509
RWRIN

WEATHER ROUNDUP FOR INDIANA
NATIONAL WEATHER SERVICE INDIANAPOLIS IN
1100 AM EDT MON JUL 25 2016

NOTE: "FAIR" INDICATES FEW OR NO CLOUDS BELOW 12,000 FEET WITH NO
SIGNIFICANT WEATHER AND/OR OBSTRUCTIONS TO VISIBILITY.

* - STATION DOES NOT REPORT WEATHER SUCH AS PRECIPITATION OR FOG.

+ - STATION NOT QUALITY CONTROLLED BY THE NATIONAL WEATHER SERVICE.
    USE DATA WITH CAUTION...ESPECIALLY DEWPOINT AND RELATIVE
    HUMIDITY OBSERVATIONS.

INZ001>003-010>013-019-020-251600-
NORTHWEST INDIANA

CITY           SKY/WX    TMP DP  RH WIND       PRES   REMARKS
GARY /AIRPORT/ PTSUNNY   81 N/A N/A N14       30.01R
KNOX *+        MOSUNNY   75  63  64 CALM      30.00S
LA PORTE +     CLOUDY    80  70  70 NW8       30.01R
MICHIGAN CITY+ MOSUNNY   77  68  73 N9        30.01R
MONTICELLO +   CLOUDY    76  67  73 SW8       30.00F
RENSSELAER +   MOSUNNY   77  72  83 CALM      30.00S
VALPARAISO     MOSUNNY   80  67  64 N7        30.01R

$$

LMZ046-743>745-251600-
SOUTHERN LAKE MICHIGAN

STATION/POSITION TIME  TEMP    WIND        PRES    WAVE
                       AIR SEA DIR/SP/G            HT
                 (UTC) (F)     (DEG/KT/KT) (MB)    (FT)
BURNS HARBOR     1400   74     340/  9/ 12 1015.9R
MICHIGAN CITY    1400   75     310/ 13/ 14   N/A
5NW MICH CITY    1500   74 73  330/ 10/ 12   N/A     2

$$

INZ004-005-014>016-021>024-251600-
NORTH CENTRAL INDIANA

CITY           SKY/WX    TMP DP  RH WIND       PRES   REMARKS
ELKHART        MOSUNNY   81  73  78 W6        29.99R
GOSHEN         MOSUNNY   79  68  69 W12       29.99S
LOGANSPORT +   CLOUDY    77  70  78 SW6       30.02S
PERU/GRISSOM   CLOUDY    78  70  76 VRB7      30.00F
ROCHESTER +    CLOUDY    77  72  83 W8        30.02R
SOUTH BEND     SUNNY     79  68  69 N6        30.00R
WARSAW +       CLOUDY    77  70  78 W5        30.00S

$$

INZ006>009-017-018-025>027-251600-
NORTHEAST INDIANA

CITY           SKY/WX    TMP DP  RH WIND       PRES   REMARKS
ANGOLA *+        N/A     79  73  83 W5        29.98S
AUBURN +       CLOUDY    79  64  61 SW6       30.00S
FORT WAYNE     CLOUDY    77  67  71 W6        30.01R
HUNTINGTON +   CLOUDY   N/A N/A N/A SW5       30.01S

$$

INZ028-029-035-036-043>045-051>053-251600-
WEST CENTRAL INDIANA

CITY           SKY/WX    TMP DP  RH WIND       PRES   REMARKS
CRAWFORDSVL +  CLOUDY    76  69  79 W3        30.04R
GREENCASTLE +  CLOUDY    81  75  83 CALM      30.04R
LAFAYETTE      CLOUDY    78  72  81 W7        30.01S
TERRE HAUTE    PTSUNNY   81  67  62 CALM      30.01S

$$

INZ030>032-037>040-046>048-054>057-064-065-251600-
CENTRAL INDIANA

CITY           SKY/WX    TMP DP  RH WIND       PRES   REMARKS
COLUMBUS       SUNNY     79  75  89 N6        30.02
INDIANAPOLIS   PTSUNNY   85  66  53 VRB5      30.02F
-EAGLE CREEK   CLOUDY    86  68  54 N5        30.01S
KOKOMO *+      PTSUNNY   79  66  65 W8        30.02F
MARION +       MOSUNNY   75  68  77 W5        30.03S
MT COMFORT *+  PTSUNNY   82  68  61 N3        30.03R
SHELBYVILLE    CLOUDY    84  70  62 NW3       30.01F
ZIONSVILLE +   CLOUDY    79  70  73 W6        30.04R

$$

INZ033-034-041-042-049-050-058-059-251600-
EAST CENTRAL INDIANA

CITY           SKY/WX    TMP DP  RH WIND       PRES   REMARKS
MUNCIE         PTSUNNY   80  68  66 W7        30.03S

$$

INZ060-061-067>069-081>083-085>088-251600-
SOUTHWEST INDIANA

CITY           SKY/WX    TMP DP  RH WIND       PRES   REMARKS
EVANSVILLE     CLOUDY    86  76  71 W5        30.01S HX  96
HUNTINGBURG *+ CLOUDY    86  77  74 SW5       30.01S HX  97
WASHINGTON +   CLOUDY    80  76  87 MISG      30.01S

$$

INZ062-063-066-070>080-084-089>092-251600-
SOUTH CENTRAL AND SOUTHEAST INDIANA

CITY           SKY/WX    TMP DP  RH WIND       PRES   REMARKS
BLOOMINGTON    MOSUNNY   83  73  72 CALM      30.02S
MADISON *+     CLOUDY    86  73  66 SW7       30.04S
NORTH VERNON + MOSUNNY  N/A N/A N/A CALM      30.03S

$$





USA.gov is the U.S. government's official web portal to all federal, state and local government web resources and services.